This demonstration page uses our WeatherBlox Daily Observations layout. Learn more.

Left ArrowRight Arrow

41.86663, -103.66717

Hourly Observations for April 6, 2018

Temp ( °F °C ) Dew Point ( °F °C ) Humidity (%) Winds ( mph kmh ) Pressure ( in mb ) Visibility ( mi km ) Precip ( " mm )
12:20 am 00:20 Cloudy 34 1.1 30 -1.1 85 85 ENE 14 22 30.15 1021 10 16 N/A
12:43 am 00:43 Cloudy with Light Snow 32 undefined 30 -1.1 92 92 ENE 16 26 30.15 1021 3 4 N/A
12:51 am 00:51 Cloudy with Light Snow 32 undefined 30 -1 93 93 ENE 17 28 30.15 1021 2 2 0.01 0.25
12:53 am 00:53 Cloudy with Light Snow 32 undefined 30 -1.1 92 92 ENE 16 26 30.03 1017 2 3 0.01 0.25
12:58 am 00:58 Cloudy with Light Snow 32 undefined 30 -1.1 92 92 ENE 15 24 30.15 1021 2 3 N/A
1:05 am 01:05 Cloudy with Light Snow 31 -0.6 29 -1.7 92 92 ENE 17 28 30.15 1021 1 2 N/A
1:51 am 01:51 Windy with Snow Likely 30 -1 27 -3 86 86 NE 20 31 30.18 1022 3 4 0.01 0.25
1:53 am 01:53 Windy with Snow Likely 30 -1.1 27 -2.8 88 88 NE 21 33 30.05 1018 3 4 0.01 0.25
2:32 am 02:32 Cloudy with Light Snow 28 -2 27 -3 93 93 NE 16 26 30.21 1023 2 2 N/A
2:46 am 02:46 Cloudy with Light Snow 29 -1.7 26 -3.3 89 89 ENE 17 28 30.21 1023 3 4 0.02 0.51
2:53 am 02:53 Cloudy with Light Snow 28 -2.2 26 -3.3 92 92 ENE 16 26 30.06 1018 4 6 0.02 0.51
3:08 am 03:08 Cloudy with Light Snow 27 -3 25 -4 93 93 ENE 15 24 30.24 1024 3 4 N/A
3:15 am 03:15 Windy with Snow Likely 27 -2.8 23 -5 85 85 NE 21 33 30.21 1023 3 5 N/A
3:30 am 03:30 Windy with Snow Likely 26 -3.3 22 -5.6 84 84 ENE 20 31 30.24 1024 3 4 N/A
3:44 am 03:44 Windy with Snow Likely 26 -3.3 22 -5.6 84 84 ENE 23 37 30.24 1024 2 2 0.01 0.25
3:53 am 03:53 Windy with Snow Likely 25 -3.9 22 -5.6 88 88 NE 22 35 30.07 1018 2 3 0.01 0.25
4:20 am 04:20 Windy with Snow Likely 25 -4 21 -6 86 86 ENE 24 39 30.24 1024 1 2 N/A
4:31 am 04:31 Mostly Cloudy with Light Snow 24 -4.4 21 -6.1 88 88 NE 24 39 30.24 1024 1 1 0.01 0.25
4:53 am 04:53 Mostly Cloudy with Light Snow 24 -4.4 21 -6.1 88 88 ENE 20 31 30.11 1020 1 1 0.02 0.51
5:07 am 05:07 Mostly Cloudy with Light Snow 24 -4.4 21 -6.1 88 88 ENE 15 24 30.30 1026 1 2 0.01 0.25
5:53 am 05:53 Cloudy with Light Snow 23 -5 20 -6.7 88 88 ENE 17 28 30.14 1021 1 2 0.03 0.76
6:05 am 06:05 Cloudy with Light Snow 23 -5 20 -6.7 88 88 ENE 16 26 30.30 1026 1 2 0.01 0.25
6:27 am 06:27 Cloudy with Light Snow 23 -5 20 -6.7 88 88 ENE 15 24 30.33 1027 2 2 0.02 0.51
6:38 am 06:38 Cloudy with Light Snow 23 -5 19 -7 86 86 ENE 16 26 30.33 1027 2 3 N/A
6:53 am 06:53 Windy with Snow Likely 23 -5 19 -7.2 85 85 NE 20 31 30.20 1023 2 2 0.02 0.51
7:20 am 07:20 Cloudy with Light Snow 21 -6 18 -8 86 86 NE 18 30 30.36 1028 2 2 N/A
7:28 am 07:28 Cloudy with Light Snow 21 -6 16 -9 80 80 NE 16 26 30.36 1028 3 4 N/A
7:43 am 07:43 Windy with Snow Likely 21 -6.1 16 -8.9 81 81 NE 20 31 30.39 1029 4 6 0.01 0.25
7:53 am 07:53 Cloudy with Light Snow 21 -6.1 17 -8.3 85 85 NE 13 20 30.25 1024 5 8 0.01 0.25
8:08 am 08:08 Cloudy with Light Snow 21 -6 16 -9 80 80 NE 13 20 30.39 1029 3 4 N/A
8:36 am 08:36 Cloudy with Light Snow 21 -6.1 17 -8.3 85 85 NE 10 17 30.42 1030 3 5 0.01 0.25
8:53 am 08:53 Cloudy with Light Snow 22 -5.6 16 -8.9 78 78 NE 14 22 30.28 1025 3 4 0.01 0.25
9:12 am 09:12 Cloudy with Light Snow 21 -6 16 -9 80 80 NE 16 26 30.42 1030 4 6 N/A
9:28 am 09:28 Cloudy with Light Snow 21 -6 16 -9 80 80 ENE 16 26 30.42 1030 2 3 N/A
9:53 am 09:53 Cloudy with Light Snow 22 -5.6 15 -9.4 75 75 NE 14 22 30.30 1026 3 4 0.01 0.25
10:06 am 10:06 Cloudy with Light Snow 21 -6 18 -8 86 86 ENE 15 24 30.42 1030 1 2 N/A
10:41 am 10:41 Cloudy with Light Snow 22 -5.6 17 -8.3 82 82 E 13 20 30.45 1031 1 1 0.01 0.25
10:53 am 10:53 Cloudy with Light Snow 21 -6.1 16 -8.9 81 81 ENE 14 22 30.32 1027 1 1 0.01 0.25
11:04 am 11:04 Cloudy with Light Snow 21 -6.1 16 -8.9 81 81 E 14 22 30.45 1031 1 2 N/A
11:53 am 11:53 Cloudy with Light Snow 22 -5.6 16 -8.9 78 78 ENE 9 15 30.34 1027 2 3 0.01 0.25
12:05 pm 12:05 Cloudy with Light Snow 22 -5.6 15 -9.4 75 75 NE 9 15 30.45 1031 2 2 0.01 0.25
12:17 pm 12:17 Cloudy with Light Snow 22 -5.6 15 -9.4 75 75 ENE 8 13 30.45 1031 2 3 0.01 0.25
12:23 pm 12:23 Cloudy with Light Snow 22 -5.6 16 -8.9 78 78 NE 9 15 30.45 1031 2 3 0.01 0.25
12:44 pm 12:44 Cloudy with Light Snow 21 -6 16 -9 80 80 E 12 19 30.45 1031 2 3 N/A
12:53 pm 12:53 Cloudy with Light Snow 21 -6.1 15 -9.4 78 78 E 13 20 30.34 1028 2 3 0.01 0.25
1:07 pm 13:07 Cloudy with Light Snow 21 -6.1 14 -10 74 74 E 12 19 30.45 1031 2 3 N/A
1:24 pm 13:24 Cloudy with Light Snow 19 -7 16 -9 86 86 E 13 20 30.48 1032 1 2 N/A
1:35 pm 13:35 Cloudy with Light Snow 20 -6.7 15 -9.4 81 81 ENE 10 17 30.48 1032 1 2 0.01 0.25
1:53 pm 13:53 Cloudy with Light Snow 21 -6.1 15 -9.4 78 78 E 9 15 30.34 1027 2 2 0.01 0.25
2:16 pm 14:16 Cloudy with Light Snow 22 -5.6 15 -9.4 75 75 E 9 15 30.42 1030 2 3 N/A
2:28 pm 14:28 Cloudy with Light Snow 21 -6 16 -9 80 80 E 7 11 30.42 1030 3 5 N/A
2:40 pm 14:40 Cloudy with Light Snow 22 -5.6 16 -8.9 78 78 E 7 11 30.42 1030 3 4 N/A
2:53 pm 14:53 Cloudy with Light Snow 22 -5.6 15 -9.4 75 75 E 6 9 30.32 1027 3 4 N/A
3:12 pm 15:12 Cloudy with Light Snow 21 -6 14 -10 74 74 ENE 5 7 30.42 1030 4 6 N/A
3:53 pm 15:53 Cloudy with Light Snow 22 -5.6 15 -9.4 75 75 E 5 7 30.32 1027 4 6 N/A
4:24 pm 16:24 Cloudy with Light Snow 21 -6 16 -9 80 80 ESE 6 9 30.39 1029 2 3 N/A
4:53 pm 16:53 Cloudy with Light Snow 21 -6.1 16 -8.9 81 81 E 8 13 30.32 1027 2 3 N/A
5:29 pm 17:29 Cloudy with Light Snow 22 -5.6 15 -9.4 75 75 ESE 9 15 30.39 1029 4 6 N/A
5:53 pm 17:53 Cloudy with Light Snow 22 -5.6 14 -10 71 71 E 9 15 30.32 1027 5 8 N/A
6:06 pm 18:06 Cloudy with Light Snow 21 -6 16 -9 80 80 ESE 9 15 30.39 1029 2 3 N/A
6:11 pm 18:11 Cloudy with Light Snow 21 -6.1 15 -9.4 78 78 ESE 8 13 30.39 1029 2 3 0.01 0.25
6:23 pm 18:23 Cloudy with Light Snow 21 -6.1 14 -10 74 74 ESE 10 17 30.39 1029 4 6 0.01 0.25
6:37 pm 18:37 Cloudy 21 -6.1 14 -10 74 74 ESE 10 17 30.39 1029 9 14 0.01 0.25
6:53 pm 18:53 Cloudy 20 -6.7 15 -9.4 81 81 ESE 10 17 30.32 1027 9 14 0.01 0.25
7:05 pm 19:05 Cloudy 20 -6.7 14 -10 78 78 ESE 10 17 30.39 1029 7 11 N/A
7:18 pm 19:18 Cloudy 19 -7 14 -10 79 79 ESE 9 15 30.39 1029 10 16 N/A
7:53 pm 19:53 Cloudy 20 -6.7 14 -10 78 78 ESE 13 20 30.33 1027 9 14 N/A
8:53 pm 20:53 Mostly Cloudy 19 -7.2 13 -10.6 77 77 ESE 14 22 30.33 1027 10 16 N/A
9:53 pm 21:53 Clear 17 -8.3 13 -10.6 84 84 ESE 12 19 30.33 1027 10 16 N/A
10:53 pm 22:53 Clear 16 -8.9 11 -11.7 80 80 ESE 8 13 30.32 1027 10 16 N/A
11:53 pm 23:53 Clear 14 -10 10 -12.2 84 84 E 8 13 30.31 1026 10 16 N/A

Powered by AerisWeather